FLOCK 2E-2

Last updated on Jan. 24, 2018, 12:15 a.m. UTC

1 41484U 98067JE  18023.85566400  .18749729  12492-4  73737-3 0  9998
2 41484  51.6059 312.5354 0003784 256.0915 104.5100 16.43905394 96608

Satellite is not in orbit.